Location: Bonaustraße
(48.4603°N, 11.9280°E)
Time: 03:55:10
(UTC+01:00)

Envisat - Pass Details

Date: 27 January 2021
Orbit: 764 x 766 km, 98.1° (Epoch: 05 March)

Event Time Altitude Azimuth Distance (km) Brightness Sun altitude
Rises 04:20:09 0° 34° (NNE) 3,243 6.8 -34.2°
Reaches altitude 10° 04:25:00 10° 75° (ENE) 2,307 6.3 -33.4°
Maximum altitude 04:25:46 10° 84° (E) 2,283 6.3 -33.3°
Drops below altitude 10° 04:26:33 10° 93° (E) 2,304 6.3 -33.2°
Sets 04:31:21 0° 134° (SE) 3,221 6.7 -32.4°
